DLH40V EDDF-KRDU

Flight info

Callsign DLH40V
Flight time N/A
Altitude 36000
Route OBOKA5G/25C OBOKA Z29 TORNU DCT BATAK DCT GALSO Q63 ERING L179 UGBET Q60 OKSAW DCT BIBPE DCT FELCA DCT FADZU DCT OFSOX DCT SLANY DCT TOBOR/M082F380 NATC ELSIR/N0456F380 N398B TUSKY/N0463F400 DCT FOXBO DCT RIFLE Q167 ZJAAY TAQLE3
Aircraft A333/H-SDE3GHIJ2J3J5M1RVWXY/LB2D1

Departure

Time 2026-05-06 15:12
Airport Frankfurt Main Airport (EDDF)

Arrival

Time N/A
Airport Raleigh-Durham International Airport (KRDU)
Time Latitude Longitude Altitude Speed Heading
2026-05-06 14:24 50.04754 8.56388 373 ft 0 kts 340°
2026-05-06 14:57 50.04753 8.56388 373 ft 1 kts 340°
2026-05-06 14:57 50.04740 8.56396 372 ft 2 kts 340°
2026-05-06 14:57 50.04726 8.56404 372 ft 2 kts 340°
2026-05-06 14:58 50.04711 8.56412 372 ft 2 kts 340°
2026-05-06 14:58 50.04698 8.56420 372 ft 2 kts 340°
2026-05-06 14:58 50.04689 8.56425 372 ft 2 kts 339°
2026-05-06 14:58 50.04676 8.56438 372 ft 2 kts 297°
2026-05-06 14:59 50.04673 8.56460 372 ft 2 kts 262°
2026-05-06 14:59 50.04674 8.56470 372 ft 1 kts 248°
2026-05-06 14:59 50.04676 8.56475 372 ft 0 kts 249°
2026-05-06 15:01 50.04675 8.56475 372 ft 0 kts 249°
2026-05-06 15:01 50.04664 8.56426 372 ft 9 kts 250°
2026-05-06 15:01 50.04632 8.56288 371 ft 17 kts 250°
2026-05-06 15:02 50.04581 8.56074 369 ft 22 kts 249°
2026-05-06 15:02 50.04471 8.55927 367 ft 21 kts 195°
2026-05-06 15:02 50.04333 8.55937 365 ft 15 kts 163°
2026-05-06 15:02 50.04228 8.55926 363 ft 17 kts 197°
2026-05-06 15:03 50.04092 8.55996 359 ft 24 kts 120°
2026-05-06 15:03 50.04121 8.56250 361 ft 23 kts 69°
2026-05-06 15:03 50.04178 8.56485 363 ft 22 kts 70°
2026-05-06 15:03 50.04230 8.56711 367 ft 22 kts 70°
2026-05-06 15:04 50.04287 8.56949 369 ft 24 kts 69°
2026-05-06 15:04 50.04350 8.57213 371 ft 26 kts 70°
2026-05-06 15:04 50.04416 8.57488 374 ft 28 kts 69°
2026-05-06 15:04 50.04489 8.57795 376 ft 30 kts 71°
2026-05-06 15:05 50.04562 8.58103 378 ft 30 kts 69°
2026-05-06 15:05 50.04607 8.58284 378 ft 9 kts 71°
2026-05-06 15:05 50.04625 8.58365 378 ft 7 kts 70°
2026-05-06 15:05 50.04630 8.58382 377 ft 0 kts 69°
2026-05-06 15:06 50.04630 8.58383 377 ft 0 kts 69°
2026-05-06 15:06 50.04644 8.58443 377 ft 11 kts 69°
2026-05-06 15:06 50.04662 8.58531 376 ft 4 kts 97°
2026-05-06 15:07 50.04650 8.58550 376 ft 0 kts 151°
2026-05-06 15:08 50.04649 8.58550 376 ft 0 kts 151°
2026-05-06 15:08 50.04620 8.58574 376 ft 7 kts 159°
2026-05-06 15:08 50.04605 8.58583 375 ft 0 kts 160°
2026-05-06 15:10 50.04600 8.58586 375 ft 4 kts 160°
2026-05-06 15:10 50.04532 8.58625 374 ft 15 kts 162°
2026-05-06 15:10 50.04491 8.58604 374 ft 6 kts 239°
2026-05-06 15:10 50.04485 8.58582 374 ft 0 kts 250°
2026-05-06 15:11 50.04481 8.58566 375 ft 8 kts 252°
2026-05-06 15:11 50.04407 8.58249 376 ft 60 kts 249°
2026-05-06 15:11 50.04187 8.57336 369 ft 120 kts 250°
2026-05-06 15:12 50.03834 8.55848 371 ft 168 kts 249°
2026-05-06 15:12 50.03437 8.54158 990 ft 164 kts 251°
2026-05-06 15:12 50.03033 8.52536 1658 ft 164 kts 251°
2026-05-06 15:12 50.02641 8.50862 2141 ft 167 kts 259°
2026-05-06 15:13 50.02596 8.49052 2432 ft 170 kts 282°
2026-05-06 15:13 50.02835 8.47221 2719 ft 178 kts 282°
2026-05-06 15:13 50.03027 8.45277 3005 ft 188 kts 277°
2026-05-06 15:13 50.02900 8.43166 3130 ft 209 kts 260°
2026-05-06 15:14 50.02606 8.40835 3397 ft 229 kts 262°
2026-05-06 15:14 50.02306 8.38323 3789 ft 245 kts 261°
2026-05-06 15:14 50.01987 8.35666 4259 ft 258 kts 261°
2026-05-06 15:14 50.01658 8.32916 4968 ft 260 kts 259°
2026-05-06 15:15 50.01328 8.30148 5724 ft 259 kts 260°